RH
49 53 58 61 64 62 62 66 67 69 70 67 69 72 73 75 73 69 64 55 52 54 54 54 54 55 56 57 58 57 54 53 52 51 51 50 48 47 50 53 53 53
52 52 56 60 63 63 64 66 65 67 70 69 71 73 73 73 71 65 58 50 48 49 49 51 53 54 56 58 58 58 57 56 55 54 53 52 50 48 50 53 51 48
54 55 57 58 61 64 67 67 65 66 69 73 76 76 75 72 68 60 52 47 46 47 48 49 52 54 56 59 59 58 57 56 55 56 55 54 53 52 53 53 51 48
54 56 57 57 61 67 69 67 65 65 68 73 78 79 78 73 65 55 47 45 47 47 47 48 52 55 58 61 62 60 58 57 55 56 56 54 54 53 52 52 52 50
56 58 60 62 66 70 70 66 65 67 67 71 78 79 77 71 61 53 49 48 48 47 48 50 54 59 60 62 64 62 61 60 57 56 54 53 52 52 51 51 51 51
59 61 66 69 71 71 68 65 66 68 68 72 75 74 72 67 59 55 55 55 53 52 52 53 57 62 62 62 63 62 63 61 59 58 56 55 54 53 53 52 50 51
63 63 66 70 71 69 67 66 68 70 72 73 71 70 71 66 61 60 60 59 58 58 57 56 57 61 62 61 61 62 63 62 61 61 59 58 56 54 56 55 50 49
68 69 71 73 73 70 69 69 71 74 74 72 72 73 70 65 61 61 62 63 61 60 60 59 59 59 57 56 56 59 60 60 61 62 60 58 56 55 57 57 53 53
77 80 81 81 79 76 73 71 73 76 73 72 76 75 68 66 65 64 67 68 66 64 63 61 60 59 56 52 51 53 55 57 59 59 57 55 53 51 52 54 57 60
81 84 83 86 87 82 75 71 74 75 71 73 77 72 68 71 70 69 72 70 68 69 67 65 64 61 59 55 50 49 51 54 55 55 55 53 50 48 49 49 53 55
81 85 86 88 91 87 77 73 73 74 72 75 76 72 72 74 71 72 73 70 71 72 71 70 69 63 61 58 53 51 51 49 49 49 49 49 49 49 49 48 49 52
84 89 89 90 93 89 81 75 73 74 76 78 78 77 76 74 73 73 71 70 73 73 71 73 71 66 66 63 58 55 52 47 44 43 42 44 45 44 44 47 48 50
90 92 89 92 92 86 81 77 72 74 79 81 82 80 77 75 74 72 70 70 72 70 69 70 68 67 68 66 62 60 58 53 48 45 43 44 44 42 42 45 44 44
94 93 89 93 91 81 81 81 75 76 81 83 84 80 76 75 74 71 70 69 68 66 65 66 66 65 66 66 66 65 64 62 58 52 48 47 49 48 44 43 42 44
95 93 89 93 90 80 82 85 81 80 83 85 83 79 75 73 71 70 69 67 65 65 64 64 64 65 65 66 68 68 69 68 64 59 54 50 51 53 49 44 42 47
92 91 90 92 89 83 84 87 85 85 85 84 81 76 73 72 70 69 67 65 64 63 62 62 63 64 66 67 69 70 71 71 68 62 57 53 52 54 54 49 43 46
91 91 91 93 93 89 89 89 89 88 85 83 80 76 74 73 71 69 65 63 62 62 61 62 62 64 66 66 67 69 70 71 71 66 58 55 53 54 57 54 46 46
95 93 94 96 94 88 87 90 90 89 86 84 82 79 77 75 72 68 65 63 62 62 60 59 60 61 62 61 62 65 66 67 72 70 61 55 52 52 57 60 54 49
96 94 94 96 92 86 88 92 91 89 87 85 83 80 77 75 72 69 67 64 63 61 59 57 56 55 56 59 62 65 66 68 74 76 65 56 53 52 56 60 58 54
92 90 89 91 90 89 91 93 89 86 85 84 84 81 77 74 72 69 67 65 63 62 61 61 61 60 59 63 68 71 72 74 81 80 68 60 57 55 56 59 59 57
89 88 87 89 92 93 94 92 88 85 84 82 81 80 76 74 72 70 69 68 67 67 69 71 73 72 70 71 73 75 79 84 88 81 67 62 62 60 60 62 62 61
91 91 88 88 92 95 94 93 89 85 84 81 79 79 77 76 75 74 74 73 75 77 79 80 80 79 78 78 77 78 82 86 84 73 62 60 62 64 65 66 65 63
96 95 91 89 93 95 94 92 89 84 82 81 79 79 79 78 78 79 81 82 84 84 83 82 79 76 75 77 76 77 77 75 69 61 58 59 61 64 67 68 67 65
98 97 93 90 91 93 92 90 88 85 83 82 81 81 84 84 85 85 87 87 86 84 83 81 74 68 68 72 73 71 68 65 62 60 60 63 65 69 71 71 70 69
98 98 95 92 90 91 91 90 87 85 85 85 85 87 90 92 91 89 88 88 87 86 85 81 71 62 60 65 68 67 65 65 66 65 66 68 73 80 83 82 80 78
100 99 98 95 93 92 93 92 90 89 88 87 89 93 95 96 93 89 88 88 87 87 85 80 73 66 60 59 62 64 66 67 68 67 66 67 70 75 78 78 76 74